Location: Newark
(37.4167°N, 6.2889°W)
Time: 09:32:25
(UTC+00:00)

ISS - Visible Passes

Search period start: 21 March 2019 00:00
Search period end: 31 March 2019 00:00
Orbit: 406 x 411 km, 51.6° (Epoch: 21 March)

Date Brightness Start Highest point End Pass type
(mag) Time Alt. Az. Time Alt. Az. Time Alt. Az.
21 Mar -3.2 19:23:19 10° SSW 19:26:23 37° SE 19:28:51 14° ENE visible
21 Mar -0.9 21:00:19 10° W 21:01:39 18° WNW 21:01:39 18° WNW visible
22 Mar -2.5 20:08:43 10° WSW 20:11:50 38° NW 20:13:28 22° NNE visible
23 Mar -3.6 19:17:25 10° SW 19:20:41 73° NW 19:23:59 10° NE visible
23 Mar -0.8 20:56:02 10° NW 20:57:44 13° NNW 20:57:51 13° NNW visible
24 Mar -1.2 20:03:57 10° WNW 20:06:24 19° NNW 20:08:50 10° NNE visible
25 Mar -1.9 19:12:11 10° W 19:15:07 29° NNW 19:18:04 10° NNE visible
26 Mar -0.8 19:59:53 10° NW 20:01:05 11° NNW 20:02:16 10° N visible
27 Mar -1.1 19:07:34 10° WNW 19:09:40 16° NNW 19:11:48 10° NNE visible
